Location: Unspecified
(0.0000°N, 0.0000°E)
Time: 03:08:11
(UTC+00:00)

deb NNS O-18 - Pass Details

Date: 07 November 2024
Orbit: 1009 x 1291 km, 89.8° (Epoch: 29 November)

Event Time Altitude Azimuth Distance (km) Brightness Sun altitude
Rises 04:49:09 0° 189° (S) 4,167 ? -13.1°
Reaches altitude 10° 04:52:01 10° 195° (SSW) 3,164 ? -12.4°
Maximum altitude 04:58:54 45° 265° (W) 1,542 ? -10.7°
Drops below altitude 10° 05:05:21 10° 336° (NNW) 2,963 ? -9.2°
Sets 05:07:59 0° 342° (NNW) 3,880 ? -8.6°
